Change the Weather History Date:

Wednesday, March 6, 2013

  Actual Average Record
Temperature  
Mean Temperature 29 °F -  
Max Temperature 37 °F 35 °F 44 °F (2007)
Min Temperature 21 °F 27 °F 21 °F (2013)
Degree Days  
Heating Degree Days 36    
Moisture  
Dew Point 22 °F    
Average Humidity 75    
Maximum Humidity 93    
Minimum Humidity 52    
Precipitation  
Precipitation 0.00 in - - ()
Sea Level Pressure  
Sea Level Pressure 29.97 in    
Wind  
Wind Speed 6 mph (ENE)    
Max Wind Speed 13 mph    
Max Gust Speed 16 mph    
Visibility 10 miles    
Events      
Averages and records for this station are not official NWS values.
T = Trace of Precipitation, MM = Missing Value Source: NWS Daily Summary

Daily Weather History Graph

Daily Weather History Graph

Search for Another Location

Airport or City:

Trip Planner

Search our weather history database for the weather conditions in past years. The results will help you decide how hot, cold, wet, or windy it might be!

Date:

Astronomy

Mar. 06, 2013 Rise Set
Actual Time 6:34 AM AKST 5:40 PM AKST
Civil Twilight 5:56 AM AKST 6:18 PM AKST
Nautical Twilight 5:12 AM AKST 7:02 PM AKST
Astronomical Twilight 4:26 AM AKST 7:48 PM AKST
Moon 3:41 AM AKST (3/6) 11:40 AM AKST (3/6)
Length of Visible Light 12h 22m
Length of Day
11h 06m
Waning Crescent, 28% of the Moon is Illuminated
Mar 6
Waning Crescent
Mar 11
New
Mar 19
First Quarter
Mar 27
Full
Apr 2
Last Quarter

Hourly Weather History & Observations

Time (AKST) Temp. Windchill Dew Point Humidity Pressure Visibility Wind Dir Wind Speed Gust Speed Precip Events Conditions
12:16 AM 24.8 °F 16.9 °F 19.4 °F 80% 30.00 in 10.0 mi ENE 6.9 mph - N/A   Clear
12:36 AM 24.8 °F 16.9 °F 19.4 °F 80% 30.00 in 10.0 mi East 6.9 mph - N/A   Clear
12:56 AM 24.8 °F 16.9 °F 19.4 °F 80% 30.00 in 10.0 mi East 6.9 mph - N/A   Clear
1:16 AM 23.0 °F 14.7 °F 19.4 °F 86% 30.00 in 10.0 mi ENE 6.9 mph - N/A   Clear
1:36 AM 24.8 °F 16.9 °F 19.4 °F 80% 30.00 in 10.0 mi ENE 6.9 mph - N/A   Clear
1:56 AM 23.0 °F 15.8 °F 19.4 °F 86% 29.99 in 10.0 mi East 5.8 mph - N/A   Clear
2:16 AM 23.0 °F 17.0 °F 19.4 °F 86% 29.99 in 10.0 mi East 4.6 mph - N/A   Clear
2:36 AM 23.0 °F 17.0 °F 19.4 °F 86% 29.99 in 10.0 mi ENE 4.6 mph - N/A   Clear
2:56 AM 23.0 °F 14.7 °F 19.4 °F 86% 29.98 in 10.0 mi ENE 6.9 mph - N/A   Clear
3:16 AM 23.0 °F 13.9 °F 19.4 °F 86% 29.98 in 10.0 mi ENE 8.1 mph - N/A   Clear
3:36 AM 23.0 °F 13.9 °F 19.4 °F 86% 29.98 in 10.0 mi ENE 8.1 mph - N/A   Clear
3:56 AM 23.0 °F 14.7 °F 19.4 °F 86% 29.98 in 10.0 mi ENE 6.9 mph - N/A   Clear
4:16 AM 23.0 °F 14.7 °F 19.4 °F 86% 29.98 in 10.0 mi ENE 6.9 mph - N/A   Clear
4:36 AM 23.0 °F 14.7 °F 19.4 °F 86% 29.98 in 10.0 mi East 6.9 mph - N/A   Clear
4:56 AM 23.0 °F 14.7 °F 19.4 °F 86% 29.98 in 10.0 mi East 6.9 mph - N/A   Clear
5:16 AM 23.0 °F - 19.4 °F 86% 29.98 in 10.0 mi Calm Calm - N/A   Clear
5:36 AM 23.0 °F - 17.6 °F 80% 29.98 in 10.0 mi Calm Calm - N/A   Clear
5:56 AM 21.2 °F 16.4 °F 19.4 °F 93% 29.98 in 10.0 mi East 3.5 mph - N/A   Clear
6:16 AM 23.0 °F 18.4 °F 19.4 °F 86% 29.98 in 10.0 mi East 3.5 mph - N/A   Clear
6:36 AM 23.0 °F 15.8 °F 19.4 °F 86% 29.98 in 10.0 mi East 5.8 mph - N/A   Clear
6:56 AM 23.0 °F 15.8 °F 19.4 °F 86% 29.98 in 10.0 mi ENE 5.8 mph - N/A   Clear
7:16 AM 23.0 °F 15.8 °F 19.4 °F 86% 29.97 in 10.0 mi East 5.8 mph - N/A   Clear
7:36 AM 24.8 °F 16.9 °F 19.4 °F 80% 29.97 in 10.0 mi East 6.9 mph - N/A   Clear
7:56 AM 24.8 °F 16.9 °F 21.2 °F 86% 29.97 in 10.0 mi East 6.9 mph - N/A   Clear
8:16 AM 26.6 °F 19.1 °F 21.2 °F 80% 29.98 in 10.0 mi ENE 6.9 mph - N/A   Clear
8:36 AM 28.4 °F - 24.8 °F 86% 29.98 in 10.0 mi Calm Calm - N/A   Clear
8:56 AM 32.0 °F - 24.8 °F 75% 29.98 in 10.0 mi Calm Calm - N/A   Clear
9:16 AM 33.8 °F 30.8 °F 24.8 °F 70% 29.98 in 10.0 mi NE 3.5 mph - N/A   Clear
9:36 AM 33.8 °F - 24.8 °F 70% 29.98 in 10.0 mi Calm Calm - N/A   Clear
9:56 AM 33.8 °F - 24.8 °F 70% 29.97 in 10.0 mi Calm Calm - N/A   Clear
10:16 AM 33.8 °F - 26.6 °F 75% 29.97 in 10.0 mi Calm Calm - N/A   Clear
10:36 AM 35.6 °F - 24.8 °F 65% 29.97 in 10.0 mi Calm Calm - N/A   Clear
10:56 AM 35.6 °F 31.7 °F 26.6 °F 70% 29.97 in 10.0 mi South 4.6 mph - N/A   Clear
11:16 AM 35.6 °F 31.7 °F 24.8 °F 65% 29.97 in 10.0 mi SSW 4.6 mph - N/A   Clear
11:36 AM 35.6 °F 30.7 °F 24.8 °F 65% 29.97 in 10.0 mi SW 5.8 mph - N/A   Clear
11:56 AM 35.6 °F 32.8 °F 24.8 °F 65% 29.97 in 10.0 mi WSW 3.5 mph - N/A   Clear
12:16 PM 35.6 °F 32.8 °F 24.8 °F 65% 29.97 in 10.0 mi NNE 3.5 mph - N/A   Clear
12:36 PM 37.4 °F 31.4 °F 24.8 °F 60% 29.97 in 10.0 mi NNE 8.1 mph - N/A   Clear
12:56 PM 37.4 °F 32.1 °F 23.0 °F 56% 29.97 in 10.0 mi North 6.9 mph - N/A   Clear
1:16 PM 37.4 °F 34.9 °F 21.2 °F 52% 29.96 in 10.0 mi SW 3.5 mph - N/A   Clear
1:36 PM 37.4 °F 32.1 °F 23.0 °F 56% 29.95 in 10.0 mi NW 6.9 mph - N/A   Clear
1:56 PM 37.4 °F 31.4 °F 21.2 °F 52% 29.95 in 10.0 mi NW 8.1 mph - N/A   Clear
2:16 PM 37.4 °F 29.8 °F 21.2 °F 52% 29.95 in 10.0 mi North 11.5 mph - N/A   Clear
2:36 PM 37.4 °F 29.8 °F 23.0 °F 56% 29.96 in 10.0 mi NW 11.5 mph 16.1 mph N/A   Clear
2:56 PM 37.4 °F 29.3 °F 24.8 °F 60% 29.96 in 10.0 mi NNW 12.7 mph - N/A   Clear
3:16 PM 37.4 °F 30.3 °F 24.8 °F 60% 29.96 in 10.0 mi NNW 10.4 mph - N/A   Clear
3:36 PM 37.4 °F 32.1 °F 23.0 °F 56% 29.96 in 10.0 mi North 6.9 mph - N/A   Clear
3:56 PM 37.4 °F 32.8 °F 23.0 °F 56% 29.96 in 10.0 mi North 5.8 mph - N/A   Clear
4:16 PM 37.4 °F 32.8 °F 24.8 °F 60% 29.96 in 10.0 mi North 5.8 mph - N/A   Clear
4:36 PM 37.4 °F 32.1 °F 24.8 °F 60% 29.95 in 10.0 mi North 6.9 mph - N/A   Clear
4:56 PM 37.4 °F 33.8 °F 24.8 °F 60% 29.95 in 10.0 mi North 4.6 mph - N/A   Clear
5:16 PM 35.6 °F 31.7 °F 24.8 °F 65% 29.95 in 10.0 mi North 4.6 mph - N/A   Clear
5:36 PM 33.8 °F - 24.8 °F 70% 29.95 in 10.0 mi Calm Calm - N/A   Clear
5:56 PM 32.0 °F - 23.0 °F 69% 29.96 in 10.0 mi Calm Calm - N/A   Clear
6:16 PM 28.4 °F - 23.0 °F 80% 29.96 in 10.0 mi Calm Calm - N/A   Clear
6:36 PM 28.4 °F 22.2 °F 23.0 °F 80% 29.96 in 10.0 mi ENE 5.8 mph - N/A   Clear
6:56 PM 28.4 °F 22.2 °F 21.2 °F 74% 29.96 in 10.0 mi ENE 5.8 mph - N/A   Clear
7:16 PM 28.4 °F 22.2 °F 21.2 °F 74% 29.97 in 10.0 mi ENE 5.8 mph - N/A   Clear
7:36 PM 28.4 °F 22.2 °F 21.2 °F 74% 29.97 in 10.0 mi ENE 5.8 mph - N/A   Clear
7:56 PM 28.4 °F 22.2 °F 21.2 °F 74% 29.97 in 10.0 mi ENE 5.8 mph - N/A   Clear
8:16 PM 28.4 °F 21.2 °F 21.2 °F 74% 29.98 in 10.0 mi ENE 6.9 mph - N/A   Clear
8:36 PM 26.6 °F 22.6 °F 21.2 °F 80% 29.98 in 10.0 mi ENE 3.5 mph - N/A   Clear
8:56 PM 26.6 °F 20.0 °F 21.2 °F 80% 29.98 in 10.0 mi ENE 5.8 mph - N/A   Clear
9:16 PM 26.6 °F 17.5 °F 21.2 °F 80% 29.98 in 10.0 mi ENE 9.2 mph - N/A   Clear
9:36 PM 26.6 °F 21.2 °F 21.2 °F 80% 29.98 in 10.0 mi ENE 4.6 mph - N/A   Clear
9:56 PM 26.6 °F 18.2 °F 21.2 °F 80% 29.98 in 10.0 mi ENE 8.1 mph - N/A   Clear
10:16 PM 26.6 °F 19.1 °F 21.2 °F 80% 29.99 in 10.0 mi ENE 6.9 mph - N/A   Clear
10:36 PM 26.6 °F 19.1 °F 21.2 °F 80% 29.99 in 10.0 mi ENE 6.9 mph - N/A   Clear
10:56 PM 24.8 °F 16.9 °F 21.2 °F 86% 29.99 in 10.0 mi ENE 6.9 mph - N/A   Clear
11:16 PM 24.8 °F 16.9 °F 21.2 °F 86% 30.00 in 10.0 mi ENE 6.9 mph - N/A   Clear
11:36 PM 24.8 °F 15.3 °F 19.4 °F 80% 30.00 in 10.0 mi ENE 9.2 mph - N/A   Clear
11:56 PM 24.8 °F 16.1 °F 21.2 °F 86% 30.00 in 10.0 mi ENE 8.1 mph - N/A   Clear